TIME,DELAY(SENSOR),PRES,T(CTD),SAL,OXYGEN,RAWTEMP,T(OPTODE),TCPHASE,FLUOR,BETA(BETA700),BETA(BETA412),BETA(BETA440),CDOM,C(CSC),ED(ED412.40),ED(ED444.00),ED(ED489.70),ED(ED554.30),LU(LU411.80),LU(LU443.40),LU(LU489.60),LU(LU554.10),COMP,TILTX,TILTX(TILTY),CHECK
1367790541,5810,497.4100036621094000,6.9577999114990230,34.0946006774902340,92.1318435668945300,588.9210815429688000,6.9415740966796875,47.3658103942871100,51,104,85,81,77,14688,2147749668,2147424960,2148005430,2147875090,2147625865,2147077979,2148244516,2147198454,3326,4,13,37622
1367790670,5806,487.0100097656250000,7.1922998428344730,34.0993995666503900,100.4656982421875000,581.3587036132812000,7.1848177909851070,46.3545799255371100,51,103,86,79,76,14687,2147747730,2147425024,2148007606,2147873938,2147627035,2147078793,2148242102,2147199981,2513,4,13,52520
1367790821,5806,476.0899963378906000,7.3933000564575195,34.0960998535156250,108.4430007934570300,575.1369018554688000,7.3845539093017580,45.4319000244140600,51,103,85,79,76,14690,2147745206,2147422564,2148006729,2147876041,2147624740,2147083748,2148241234,2147204141,2010,4,13,30788
1367791000,5808,463.4899902343750000,7.6908998489379880,34.0802993774414060,120.9156036376953100,566.2706909179688000,7.6685872077941895,44.0669097900390600,51,103,90,79,77,14690,2147744896,2147426642,2148005001,2147874432,2147622957,2147081682,2148233554,2147202002,1229,4,13,1510
1367791127,5807,452.9400024414062500,7.9858999252319340,34.0890007019043000,127.7738037109375000,556.6544799804688000,7.9758777618408200,43.2684402465820300,51,104,84,80,76,14690,2147744064,2147424036,2148001216,2147875236,2147621860,2147088850,2148233956,2147202898,1160,4,13,49948
1367791274,5810,441.0000000000000000,8.1462001800537110,34.0828018188476560,139.7200927734375000,551.0557861328125000,8.1544265747070310,42.1166191101074200,50,105,86,79,73,14690,2147743716,2147424064,2148002651,2147871890,2147620836,2147090221,2148233005,2147206765,97,5,12,47921
1367791391,5808,429.8599853515625000,8.4891996383667000,34.0811996459960940,150.7743988037109400,540.6433715820312000,8.4858016967773440,41.0158081054687500,50,104,90,81,73,14693,2147746048,2147427858,2148003574,2147873097,2147618825,2147084726,2148233088,2147202148,2865,4,13,47964
1367791506,5808,418.7200012207031000,8.7460002899169920,34.0792999267578100,161.6282043457031200,533.0178833007812000,8.7279338836669920,40.0307617187500000,50,102,83,79,73,14693,2147741046,2147425225,2148005659,2147874139,2147620507,2147090715,2148229677,2147202258,2245,4,13,46185
1367791611,5809,408.4700012207031000,8.9750003814697270,34.0871009826660160,169.1085968017578000,525.6635131835938000,8.9610271453857420,39.3450317382812500,50,103,86,79,73,14687,2147737179,2147421046,2148004470,2147874276,2147618240,2147093513,2148228470,2147203163,1494,4,13,36274
1367791726,5806,396.9700012207031000,9.3234996795654300,34.0978012084960940,176.0807952880859400,514.5684814453125000,9.3118972778320310,38.6527709960937500,50,104,87,81,72,14686,2147739245,2147427008,2148005056,2147873371,2147616173,2147095634,2148225499,2147204690,1298,4,13,32746
1367791841,5807,385.5000000000000000,9.6676998138427730,34.1054000854492200,185.6990051269531200,503.5582885742187500,9.6591958999633790,37.8039894104003900,50,102,80,80,70,14689,2147740781,2147427072,2148002916,2147874395,2147614427,2147095469,2148217069,2147207689,388,4,13,13903
1367791958,5806,373.8500061035156000,9.9028997421264650,34.1225013732910160,193.2498931884765600,495.9446105957031000,9.8988552093505860,37.1800689697265600,49,104,86,80,71,14688,2147736548,2147424566,2148005174,2147872466,2147609956,2147095378,2148226651,2147205805,2890,4,13,43928
1367792061,5807,363.3200073242187500,10.1288003921508790,34.1324005126953100,196.2635955810547000,488.7851867675781000,10.1238498687744140,36.8679885864257800,49,103,88,81,71,14694,2147732827,2147426422,2148008557,2147876662,2147609682,2147098797,2148223917,2147208210,1887,4,13,63064
1367792176,5808,351.7900085449219000,10.4603004455566400,34.1455001831054700,201.7557067871093800,478.1989135742187500,10.4559202194213870,36.3495712280273440,49,104,87,80,70,14685,2147734848,2147428891,2148008813,2147873929,2147608585,2147098989,2148224676,2147209517,1796,4,13,54631
1367792294,5810,341.3699951171875000,10.6247997283935550,34.1547012329101560,204.4084930419922000,473.0848999023437500,10.6160802841186520,36.1038398742675800,49,102,86,78,71,14688,2147733412,2147428690,2148013376,2147876461,2147606738,2147108480,2148224484,2147205997,1842,3,13,18407
1367792445,5807,330.8200073242187500,11.0214004516601560,34.1591987609863300,206.0509948730468800,460.2750854492187500,11.0165300369262700,35.7945098876953100,49,103,87,80,70,14689,2147733092,2147427885,2148019099,2147877220,2147606372,2147102518,2148224256,2147205001,1009,4,14,21160
1367792600,5813,319.4100036621094000,11.4472999572753900,34.1870002746582000,209.6450042724609400,446.2813110351562500,11.4528903961181640,35.3554191589355500,49,103,88,81,69,14684,2147733732,2147431835,2148024429,2147875236,2147604946,2147110784,2148233216,2147206226,3194,4,13,13247
1367792727,5810,308.1700134277344000,11.4998998641967770,34.1575012207031250,210.3255004882812500,444.6213073730469000,11.5045795440673830,35.2891387939453100,49,103,85,81,68,14691,2147731776,2147435437,2148036059,2147871552,2147602550,2147112969,2148233398,2147208256,2916,3,14,3481
1367792856,5807,297.5400085449219000,11.9443998336792000,34.2113990783691400,212.5213928222656200,430.8902893066406000,11.9315595626831050,34.9421806335449200,48,102,85,81,68,14684,2147729572,2147438134,2148048996,2147872731,2147600466,2147120384,2148235949,2147207862,2860,3,13,34347
1367792995,5805,286.9500122070312500,12.1562995910644530,34.1939010620117200,211.9046936035156200,423.3363037109375000,12.1660404205322270,34.8580703735351560,48,103,83,80,68,14688,2147730688,2147445833,2148067785,2147872621,2147600978,2147125403,2148238774,2147207862,2261,3,13,46848
1367793178,5807,272.5899963378906000,12.7142000198364260,34.2369003295898440,214.1358032226562500,404.2616882324219000,12.7568798065185550,34.4315605163574200,49,102,86,80,67,14685,2147731812,2147460397,2148102500,2147870875,2147595446,2147142226,2148254336,2147209773,3147,3,13,47957
1367793293,5807,261.3500061035156000,13.0917997360229500,34.2724990844726560,216.2427978515625000,393.6695861816406000,13.0842504501342770,34.1489601135253900,49,102,88,79,69,14688,2147730953,2147477696,2148145362,2147874176,2147595629,2147151725,2148273764,2147214848,2183,4,14,24528
1367793408,5805,250.4499969482422000,13.8879995346069340,34.3268013000488300,214.9904022216797000,366.3877868652344000,13.9253501892089840,33.8022499084472660,48,104,90,80,67,14686,2147732096,2147497709,2148206573,2147874377,2147596928,2147165302,2148302454,2147215670,1512,3,14,37826
1367793549,5810,239.9199981689453000,14.7239999771118160,34.4220008850097660,215.7467956542968800,340.5083923339844000,14.7207803726196290,33.3728218078613300,48,106,87,80,67,14678,2147729051,2147537846,2148280274,2147875904,2147593636,2147196544,2148333193,2147219364,276,3,14,6114
1367793712,5807,228.6300048828125000,15.6617002487182620,34.5149002075195300,216.7263031005859400,310.7123107910156000,15.6342601776123050,32.8811988830566400,49,103,88,80,66,14674,2147736219,2147585718,2148386505,2147871067,2147592137,2147230756,2148384073,2147225206,141,3,14,61214
1367793847,5807,216.4299926757812500,16.3871994018554700,34.5978012084960940,217.8096008300781200,285.9630126953125000,16.3915805816650400,32.4662208557128900,49,102,85,80,66,14680,2147754166,2147677174,2148568054,2147873371,2147595629,2147292626,2148466560,2147234377,203,3,14,6484
1367793950,5809,205.6600036621093800,16.9892997741699220,34.6707992553710940,216.8907012939453000,266.3941955566406000,16.9897193908691400,32.2376518249511700,49,104,88,80,65,14678,2147780598,2147787620,2148771684,2147873005,2147600996,2147363821,2148570130,2147244059,1973,3,15,30004
1367794041,5808,196.2200012207031200,17.7451000213623050,34.7640991210937500,214.8497009277343800,241.6307067871093800,17.7461490631103500,32.0000381469726560,50,107,88,80,64,14672,2147811885,2147900882,2148949796,2147874660,2147615698,2147438537,2148654052,2147247963,1659,3,14,60466
1367794116,5812,188.5800018310547000,18.1902008056640620,34.8237991333007800,213.7472991943359400,226.1934967041015600,18.2175807952880860,31.8452091217041000,50,108,87,80,65,14664,2147868251,2148088128,2149272429,2147878985,2147632868,2147549906,2148821485,2147257865,2124,2,14,41695
1367794171,5804,183.5800018310547000,18.5030002593994140,34.8643989562988300,212.9342956542968800,216.4367980957031200,18.5155391693115230,31.7546195983886720,53,108,90,81,65,14667,2147917193,2148214445,2149483483,2147878784,2147650907,2147628580,2148924553,2147268086,1728,3,14,49079
1367794226,5812,178.7400054931640600,18.7007999420166000,34.8917999267578100,213.4595031738281200,210.1296997070312500,18.7081604003906250,31.6395606994628900,54,107,88,79,64,14663,2147975085,2148374299,2149734720,2147877924,2147674102,2147722742,2149041846,2147277860,1916,3,15,17192
1367794281,5806,173.9700012207031200,18.8924999237060550,34.9179000854492200,213.7911071777343800,204.0879974365234400,18.8927001953125000,31.5389308929443360,55,109,92,81,65,14654,2148039981,2148543661,2149999296,2147880530,2147702921,2147829165,2149173321,2147287616,1757,2,14,44260
1367794336,5809,169.5800018310547000,19.2355003356933600,34.9636993408203100,214.2120056152343800,193.2223968505859400,19.2246494293212900,31.3680591583251950,58,108,87,80,62,14650,2148125293,2148720164,2150269686,2147881563,2147736000,2147940918,2149306934,2147296402,1133,2,15,23109
1367794391,5808,165.3699951171875000,19.4685001373291000,34.9945983886718750,214.1558990478515600,184.7807006835937500,19.4826202392578120,31.2565402984619140,60,112,89,80,62,14645,2148224704,2148928667,2150581686,2147884809,2147781120,2148062857,2149459099,2147308224,805,3,14,50016
1367794469,5810,160.0800018310547000,19.7268009185791000,35.0337982177734400,215.5960998535156200,176.8802947998047000,19.7241191864013670,31.0731105804443360,65,111,87,83,65,14654,2148392868,2149268836,2151094153,2147887058,2147849481,2148262061,2149703597,2147329956,3533,2,15,33551
1367794536,5807,156.2599945068359400,19.9223995208740230,35.0647010803222660,217.3226013183593800,170.5787048339843800,19.9168090820312500,30.8973808288574220,68,110,88,81,63,14649,2148449152,2149316845,2151099629,2147887049,2147881307,2148306560,2149709266,2147327168,2958,3,15,4380
1367794603,5808,152.4299926757812500,20.0424995422363280,35.0792007446289060,218.1712036132812500,166.7698059082031200,20.0333099365234380,30.8019599914550780,72,114,88,82,64,14642,2148718089,2149860278,2151951524,2147896320,2147991433,2148603830,2150094875,2147356909,3071,2,15,65230
1367794682,5809,147.8999938964843800,20.3381996154785160,35.1086997985839840,217.3836975097656200,157.0771942138672000,20.3298702239990230,30.7140293121337900,80,117,89,81,64,14624,2148990464,2150313700,2152604013,2147904082,2148108553,2148865563,2150388717,2147379748,3382,2,15,3483
1367794751,5811,144.3600006103515600,20.5858001708984380,35.1381988525390600,217.6746978759765600,149.1949005126953000,20.5711708068847660,30.5939807891845700,87,116,90,82,63,14633,2149259291,2150763062,2153231917,2147908918,2148215753,2149095414,2150659300,2147404224,3079,2,15,22887
1367794830,5806,140.5299987792968800,20.6784992218017580,35.1506996154785160,218.5399017333984400,146.0585937500000000,20.6672096252441400,30.5078201293945300,89,116,88,81,62,14628,2149631094,2151376054,2154103140,2147920740,2148376905,2149405723,2151018843,2147434148,2362,2,16,35810
1367794909,5807,136.5000000000000000,20.7773990631103500,35.1642990112304700,219.1808013916015600,142.2926025390625000,20.7825698852539060,30.4249095916748050,91,123,88,82,62,14625,2150141321,2152142445,2155134902,2147934226,2148591616,2149791926,2151442203,2147469540,1852,2,15,62848
1367794988,5808,132.5899963378906200,20.9652996063232420,35.1856994628906250,220.5930023193359400,136.5634002685547000,20.9581298828125000,30.2770996093750000,94,118,87,82,61,14616,2149177938,2150049152,2151732406,2147909668,2148178724,2148606308,2149852507,2147350089,1675,2,16,29969
1367795081,5805,128.4100036621093800,21.0545005798339840,35.1986999511718750,221.4797973632812500,133.7492980957031200,21.0443801879882800,30.1951293945312500,98,125,87,81,60,14614,2151372699,2153855067,2157362112,2147975094,2149112502,2150641188,2152349193,2147551917,1139,2,16,28762
1367795172,5807,124.3799972534179700,21.1193008422851560,35.2055015563964840,222.1894073486328000,131.8722991943359400,21.1019306182861330,30.1346492767334000,95,119,90,81,61,14612,2152493056,2155431945,2159474194,2148010578,2149604708,2151502500,2153310464,2147636278,659,2,15,34857
1367795251,5807,120.7900009155273400,21.1755008697509770,35.1945991516113300,221.4010009765625000,129.6542968750000000,21.1699409484863280,30.1454505920410160,104,119,90,83,62,14608,2153410395,2156557677,2160863798,2148045869,2150001344,2152062464,2153869229,2147689152,1153,2,15,8254
1367795342,5811,116.6699981689453100,21.2971000671386720,35.2072982788085940,220.9517059326172000,125.8851013183593800,21.2855396270751950,30.1188602447509770,106,122,88,82,62,14602,2154755163,2158169572,2162813394,2148093659,2150547163,2152846217,2154696585,2147768630,1499,2,15,23326
1367795435,5810,112.4800033569336000,21.5041007995605470,35.2347984313964840,221.4662017822265600,120.5975036621093800,21.4477806091308600,30.0237503051757800,110,119,90,83,61,14592,2156363364,2160100681,2165141686,2148158683,2151211904,2153758208,2155640384,2147857289,1064,2,15,55257
1367795526,5809,108.7300033569336000,21.7618999481201170,35.2681007385253900,224.5251007080078000,110.7146987915039000,21.7512302398681640,29.7425308227539060,122,122,88,82,61,14580,2158196800,2162338989,2167878994,2148245366,2152005494,2154822336,2156719908,2147964416,3052,2,15,9719
1367795629,5809,105.1500015258789000,21.9587993621826170,35.2883987426757800,227.7772064208984400,104.6992034912109400,21.9360809326171880,29.5052795410156250,130,120,89,82,61,14573,2160005814,2164467483,2170256896,2148331913,2152838628,2155892187,2157737828,2148074697,2274,1,15,64775
1367795763,5810,100.8399963378906200,22.1289005279541000,35.2904014587402340,229.1782989501953000,99.2950363159179700,22.1022396087646500,29.3680591583251950,144,128,93,84,61,14539,2163956854,2169265115,2175787684,2148519954,2154507172,2157955922,2159768969,2148287104,1735,2,16,14304
1367795818,5808,98.9400024414062500,22.1979007720947270,35.2896003723144500,228.7093963623047000,96.1561813354492200,22.1987895965576170,29.3502597808837900,156,129,89,83,62,14524,2166136228,2171780032,2178414390,2148598363,2155325312,2158862445,2160627620,2148383378,2022,2,16,18669
1367795885,5808,96.9800033569336000,22.4200992584228500,35.3362998962402340,230.8303070068359400,89.7882690429687500,22.3947792053222660,29.1674098968505860,168,129,92,83,60,14502,2169180480,2175494144,2182408731,2148725577,2156510491,2160241216,2161973476,2148534418,1670,1,16,30160
1367795952,5809,95.4199981689453100,22.4503993988037100,35.3468017578125000,234.8056030273437500,88.1657333374023400,22.4447402954101560,28.9593105316162100,150,124,89,83,60,14514,2170918491,2177400649,2184059309,2148797312,2157354304,2161042989,2162645686,2148616658,958,2,15,50109
1367796043,5808,92.5100021362304700,22.4727993011474600,35.3520011901855500,237.3504943847656200,85.6554031372070300,22.5220603942871100,28.8094997406005860,132,124,90,84,58,14512,2176226889,2183603163,2190019638,2149052178,2159943396,2163809728,2165065984,2148892242,211,2,15,30769
1367796098,5807,90.0299987792968800,22.6088008880615230,35.3749008178710940,239.6295013427734400,82.8520965576171900,22.6084308624267580,28.6699008941650400,96,121,89,83,58,14551,2180362331,2188411538,2194676717,2149268644,2162454162,2166605312,2167419254,2149138048,3447,2,16,18561
1367796153,5809,87.6299972534179700,22.7054004669189450,35.3841018676757800,241.4918975830078000,79.6619033813476600,22.7067508697509770,28.5455493927001950,84,119,89,83,59,14568,2184058294,2192547867,2198431058,2149462482,2165173165,2169648402,2169884772,2149396406,2919,2,16,35823
1367796208,5809,85.1500015258789000,22.7635993957519530,35.3923988342285160,243.2014007568359400,77.9558563232421900,22.7593498229980470,28.4474697113037100,82,119,90,83,58,14565,2188101147,2197141805,2202874651,2149765357,2168422235,2173293174,2172757942,2149681746,2615,2,15,53577
1367796263,5805,82.6100006103515600,22.7985992431640620,35.3951988220214840,244.1956024169922000,76.6798019409179700,22.7986907958984380,28.3870906829834000,77,121,90,83,58,14562,2193148461,2202837321,2208494930,2150154002,2172281728,2177636178,2176150116,2150039113,2117,2,16,50198
1367796320,5816,79.8899993896484400,22.8645000457763670,35.3944015502929700,244.8601074218750000,74.7930068969726600,22.8568897247314450,28.3339805603027340,72,119,88,83,57,14571,2197395620,2207499748,2213057737,2150572169,2175959305,2181731309,2179187072,2150356425,1820,2,16,24406
1367796375,5808,77.2600021362304700,22.8910007476806640,35.3891983032226560,245.3121032714843800,73.7282028198242200,22.8897304534912100,28.3008308410644530,72,121,90,83,57,14562,2203590921,2214193252,2219668169,2151242057,2180872539,2187149997,2183325357,2150819346,1727,2,16,5013
1367796430,5808,74.7099990844726600,22.9176998138427730,35.3866996765136700,245.4122009277343800,72.6350631713867200,22.9234600067138670,28.2827796936035160,69,120,92,83,56,14568,2209775872,2220733046,2226091840,2151844077,2186003529,2192934893,2187801115,2151284973,1276,2,16,58007
1367796485,5808,72.1999969482421900,22.9552001953125000,35.3881988525390600,245.3910064697265600,71.5904083251953100,22.9556903839111330,28.2705001831054700,67,121,91,84,57,14554,2215650797,2226825609,2232072091,2152563163,2190779318,2198177307,2191814720,2151722514,790,2,16,9872
1367796540,5808,69.7799987792968800,23.0053997039794920,35.3917999267578100,245.7971954345703000,69.9746627807617200,23.0055599212646500,28.2325401306152340,67,122,92,84,59,14559,2221595154,2232763309,2237564022,2153297664,2196288347,2204015177,2196031625,2152188114,192,2,16,11333
1367796595,5805,67.4700012207031200,23.0151996612548830,35.3903999328613300,245.9998931884765600,69.6242370605468800,23.0163707733154300,28.2193508148193360,65,120,89,84,58,14548,2226646080,2238063378,2242839625,2154149970,2200659620,2208567250,2199247122,2152576109,3342,2,16,31290
1367796652,5805,65.0699996948242200,23.0492000579834000,35.3951988220214840,246.2949066162109400,68.6037902832031200,23.0478706359863280,28.1936798095703120,64,122,92,83,55,14552,2220539181,2228566427,2230348397,2153586797,2199065755,2205254637,2195144859,2152160795,3179,2,16,6141
1367796707,5810,62.8499984741210940,23.0596008300781250,35.3950004577636700,246.9190063476562500,68.1917114257812500,23.0605907440185550,28.1610908508300780,64,121,91,84,61,14558,2235713170,2245244278,2247715885,2155690605,2210859986,2218192621,2205361408,2153398884,3228,2,16,43088
1367796762,5807,60.6300010681152340,23.0702991485595700,35.3931999206543000,246.9178924560547000,67.6486434936523400,23.0773601531982420,28.1543407440185550,62,123,91,83,55,14549,2251982610,2262345636,2264791643,2157949184,2224017737,2232232923,2215958125,2154674340,3208,1,16,56901
1367796817,5806,58.4700012207031250,23.1002998352050780,35.3917999267578100,246.9635009765625000,66.7763900756836000,23.1042900085449220,28.1416797637939450,62,121,91,85,59,14550,2263981750,2274964790,2277628406,2159941074,2233361508,2241628617,2222395949,2155512960,3125,2,16,11286
1367796872,5809,56.3800010681152340,23.1497993469238280,35.3918991088867200,246.6900939941406200,65.2418670654296900,23.1516799926757800,28.1344108581542970,61,123,91,86,56,14550,2273715392,2284020050,2285730496,2161433371,2243224091,2251501540,2229354377,2156386130,3025,2,16,14399
1367796927,5804,54.4099998474121100,23.1739006042480470,35.3926010131835940,246.9891052246093800,64.3832931518554700,23.1781997680664060,28.1105709075927730,61,121,93,84,53,14545,2284854912,2294730797,2295858267,2163597440,2252931913,2260585691,2235237677,2157311360,2703,1,16,24477
1367797004,5809,51.1699981689453100,23.2339992523193360,35.3931999206543000,247.3139038085937500,62.2033195495605500,23.2455501556396500,28.0694198608398440,58,124,92,84,58,14541,2307271661,2317372306,2318193042,2169085604,2275518912,2283119323,2251135277,2159632283,2182,2,16,4276
1367797059,5808,48.2200012207031250,23.2978000640869140,35.3945007324218750,247.9010009765625000,60.3703193664550800,23.3021907806396500,28.0211391448974600,58,125,92,88,54,14534,2324148470,2332875136,2333448685,2173215405,2294797266,2301589248,2263782162,2161834843,1978,2,16,53466
1367797114,5806,45.2299995422363300,23.3532009124755860,35.3758010864257800,247.3591003417968800,58.6128501892089840,23.3565101623535160,28.0228099822998050,56,123,90,86,58,14537,2316132388,2321446281,2321054500,2175638747,2289470802,2293155702,2255731053,2161687378,1970,1,17,46158
1367797169,5805,42.4599990844726560,23.4577999114990230,35.3796005249023440,245.2498016357422000,55.3456382751464840,23.4575290679931640,28.0744991302490230,55,120,91,85,58,14545,2311808786,2311381046,2307277339,2174741376,2292717357,2293845760,2254282998,2161637257,1815,1,16,33187
1367797224,5809,39.8199996948242200,23.6742000579834000,35.4006996154785160,246.7093963623047000,48.5852203369140600,23.6667194366455080,27.9269790649414060,55,125,92,86,54,14531,2374768960,2377150372,2376281170,2191691108,2353461622,2356155611,2300616402,2168974198,1526,2,16,28156
1367797279,5810,37.5400009155273440,23.8288993835449220,35.3925018310546900,247.4510040283203000,43.4745788574218750,23.8250007629394530,27.8315601348876950,53,124,89,85,57,14532,2390342957,2392655140,2394612800,2200732013,2363940214,2363283300,2304740470,2170187209,414,1,16,23200
1367797336,5807,35.6500015258789060,23.9836006164550780,35.3899993896484400,247.2890014648437500,38.3463401794433600,23.9839496612548830,27.7754306793212900,54,124,92,85,57,14533,2395613705,2397676022,2399564809,2205245714,2375313718,2372045248,2309398052,2171650441,3561,1,16,58196
1367797391,5808,34.0600013732910160,24.0333995819091800,35.3898010253906250,247.2220001220703000,36.3026809692382800,24.0473308563232420,27.7531204223632800,53,124,92,84,57,14515,2393872082,2393602962,2393426788,2206821339,2388505856,2381901897,2314826276,2172554569,3113,2,16,37558
1367797458,5803,32.2000007629394500,24.3519992828369140,35.3819007873535160,246.1925048828125000,28.4762706756591800,24.2902507781982420,27.7013797760009770,53,123,91,86,58,14532,2404503241,2404612598,2405225088,2215287744,2407632585,2398320530,2326075492,2175658157,2796,2,16,53321
1367797692,5812,30.4500007629394530,24.7607002258300780,35.3797988891601560,243.8186950683593800,12.5818099975585940,24.7845592498779300,27.6096000671386720,52,121,92,87,56,14534,2413740781,2412896932,2414703570,2221389604,2426529417,2414558116,2336014930,2177066998,111,2,16,54029
1367797819,5808,28.5799999237060550,24.8666000366210940,35.3779983520507800,242.7263031005859400,8.8296527862548830,24.9014492034912100,27.6113700866699220,52,122,89,83,55,14529,2424784237,2423311734,2425833792,2230360612,2448185956,2432402697,2346991506,2180883209,682,2,16,33031
1367797969,5808,25.8299999237060550,24.9069004058837900,35.3726997375488300,242.4642028808593800,8.0451335906982420,24.9258995056152340,27.6132392883300780,53,121,92,83,57,14520,2426655844,2423513252,2425403392,2241944521,2490798454,2468432804,2370227254,2187301165,902,1,15,16477
